EW5225 Pinellas Park FL US current weather conditions

sailwx.info

Wind from 333

Air temperature 8.3° C
Dewpoint 7.4° C

Last reported at 2018-Dec-12 03:03 UTC.
Time now 2018-Dec-12 03:58 UTC

Location: N 27°51' W 082°40'.
View on Google Maps.

See reports from other nearby stations

  
Tides and Currents Weather Stations Pressure Air Temp Water Temp Dewpoint Dewpoint Depression Visibility Wind Speed Wind Dir Waves Ship Positions
date/time (UTC)wind fromknots sea level pressurealtimeterstation pressurevisibilityair tempwater tempwave heightnotes
2018-Dec-12 03:23 351 1 gusting 3 8.9
2018-Dec-12 03:13 355 0 gusting 1 8.3
2018-Dec-12 03:08 333 8.3
2018-Dec-12 03:03 333 8.3
2018-Dec-12 02:58 333 0 gusting 1 8.3
2018-Dec-12 02:54 333 0 gusting 1 8.3
2018-Dec-12 02:48 333 8.3
2018-Dec-12 02:43 333 8.3
2018-Dec-12 02:38 333 8.3
2018-Dec-12 02:33 333 8.3
2018-Dec-12 02:23 333 8.3
2018-Dec-12 02:19 333 8.3
2018-Dec-12 02:13 333 8.9
2018-Dec-12 02:08 333 8.9
2018-Dec-12 02:04 333 8.9
2018-Dec-12 01:58 333 8.9
2018-Dec-12 01:53 333 8.9
2018-Dec-12 01:48 333 8.9
2018-Dec-12 01:43 333 9.4
2018-Dec-12 01:39 333 9.4
2018-Dec-12 01:33 333 9.4
2018-Dec-12 01:28 333 9.4
2018-Dec-12 01:24 333 0 gusting 1 9.4
2018-Dec-12 01:18 333 9.4
2018-Dec-12 01:13 333 9.4
2018-Dec-12 01:08 333 9.4
2018-Dec-12 01:03 333 0 gusting 1 9.4
2018-Dec-12 00:59 333 0 gusting 2 9.4
2018-Dec-12 00:53 333 0 gusting 2 10.0
2018-Dec-12 00:48 333 0 gusting 1 10.0
2018-Dec-12 00:43 333 10.0
2018-Dec-12 00:38 333 10.0
2018-Dec-12 00:34 333 10.0
2018-Dec-12 00:28 333 0 gusting 2 10.0
2018-Dec-12 00:23 336 0 gusting 3 10.0
2018-Dec-12 00:13 351 0 gusting 4 10.0
2018-Dec-12 00:03 331 0 gusting 2 10.0
2018-Dec-11 23:53 331 0 gusting 4 10.6
2018-Dec-11 23:43 329 1 gusting 5 10.6
2018-Dec-11 23:38 360 1 gusting 5 10.6
2018-Dec-11 23:33 355 1 gusting 4 10.6
2018-Dec-11 23:28 350 1 gusting 4 10.6
2018-Dec-11 23:23 360 1 gusting 3 10.6
2018-Dec-11 23:18 332 0 gusting 3 10.6
2018-Dec-11 23:13 335 1 gusting 6 10.6
2018-Dec-11 23:08 355 1 gusting 6 11.1
2018-Dec-11 23:03 016 1 gusting 6 11.1
2018-Dec-11 22:58 355 3 gusting 5 11.1
2018-Dec-11 22:54 333 3 gusting 5 11.1
2018-Dec-11 22:48 317 2 gusting 4 11.1
2018-Dec-11 22:43 355 1 gusting 7 11.7
2018-Dec-11 22:38 322 1 gusting 7 11.7
2018-Dec-11 22:33 355 3 gusting 7 11.7
2018-Dec-11 22:28 331 2 gusting 5 12.2
2018-Dec-11 22:23 355 3 gusting 7 12.2
2018-Dec-11 22:18 324 3 gusting 7 12.2
2018-Dec-11 22:14 337 2 gusting 6 12.8
2018-Dec-11 22:08 005 2 gusting 6 12.8
2018-Dec-11 22:03 355 1 gusting 6 12.8
2018-Dec-11 21:58 344 1 gusting 6 12.8
2018-Dec-11 21:53 005 2 gusting 5 12.8
2018-Dec-11 21:48 346 2 gusting 6 13.3
2018-Dec-11 21:38 344 2 gusting 8 13.3
2018-Dec-11 21:28 292 3 gusting 6 13.3
2018-Dec-11 21:18 355 3 gusting 8 13.3
2018-Dec-11 21:13 340 3 gusting 8 13.3
2018-Dec-11 21:08 360 4 gusting 8 13.3
2018-Dec-11 21:03 273 3 gusting 9 13.9
2018-Dec-11 20:53 360 3 gusting 7 13.9
2018-Dec-11 20:48 299 3 gusting 8 13.9
2018-Dec-11 20:44 005 2 gusting 12 13.9
2018-Dec-11 20:38 340 5 gusting 12 13.9
2018-Dec-11 20:34 360 4 gusting 9 13.9
2018-Dec-11 20:28 019 2 gusting 12 13.9
2018-Dec-11 20:23 030 5 gusting 12 13.9
2018-Dec-11 20:18 036 4 gusting 8 13.9
2018-Dec-11 20:13 031 3 gusting 10 13.9
2018-Dec-11 20:03 350 6 gusting 13 14.4
2018-Dec-11 19:53 355 3 gusting 12 13.9
2018-Dec-11 19:48 333 4 gusting 10 13.9
2018-Dec-11 19:43 328 5 gusting 10 13.9
2018-Dec-11 19:38 355 3 gusting 14 13.9
2018-Dec-11 19:34 324 4 gusting 14 13.9
2018-Dec-11 19:28 340 6 gusting 14 13.9
2018-Dec-11 19:23 005 3 gusting 13 13.9
2018-Dec-11 19:18 348 5 gusting 13 13.9
2018-Dec-11 19:13 346 6 gusting 12 13.9
2018-Dec-11 19:09 329 6 gusting 13 13.9
2018-Dec-11 19:03 327 6 gusting 14 13.9
2018-Dec-11 18:58 023 8 gusting 14 13.9
2018-Dec-11 18:48 085 6 gusting 13 13.9
2018-Dec-11 18:43 355 6 gusting 13 13.9
2018-Dec-11 18:38 355 6 gusting 13 13.9
2018-Dec-11 18:33 005 5 gusting 12 13.9
2018-Dec-11 18:23 355 4 gusting 14 13.9
2018-Dec-11 18:13 030 6 gusting 13 13.3
2018-Dec-11 18:09 005 5 gusting 14 13.3
2018-Dec-11 18:03 319 5 gusting 14 13.3
2018-Dec-11 17:58 347 4 gusting 13 13.3
2018-Dec-11 17:54 005 4 gusting 11 13.3
2018-Dec-11 17:48 277 4 gusting 19 13.3
2018-Dec-11 17:43 312 6 gusting 19 13.3
2018-Dec-11 17:38 315 8 gusting 19 12.8
2018-Dec-11 17:33 329 6 gusting 14 12.8
2018-Dec-11 17:28 277 6 gusting 13 12.8
2018-Dec-11 17:24 296 6 gusting 13 13.3
2018-Dec-11 17:18 022 4 gusting 13 13.3
2018-Dec-11 17:13 005 6 gusting 13 13.3
2018-Dec-11 17:08 005 6 gusting 13 12.8
2018-Dec-11 17:03 005 5 gusting 12 13.3
2018-Dec-11 16:58 333 6 gusting 12 13.3
2018-Dec-11 16:53 032 6 gusting 11 13.3
2018-Dec-11 16:43 342 3 gusting 14 13.3
2018-Dec-11 16:33 036 4 gusting 11 12.8
2018-Dec-11 16:28 355 1 gusting 9 12.8
2018-Dec-11 16:24 329 5 gusting 12 12.8
2018-Dec-11 16:18 280 5 gusting 12 12.2
2018-Dec-11 16:13 019 4 gusting 10 12.2
2018-Dec-11 16:03 013 6 gusting 10 11.7
2018-Dec-11 15:58 005 6 gusting 10 11.7
2018-Dec-11 15:53 028 2 gusting 11 11.7
2018-Dec-11 15:48 083 2 gusting 11 11.7
2018-Dec-11 15:44 005 5 gusting 13 11.1
2018-Dec-11 15:38 355 4 gusting 13 11.1
2018-Dec-11 15:34 355 2 gusting 8 11.1
2018-Dec-11 15:28 028 4 gusting 8 11.1
2018-Dec-11 15:23 041 2 gusting 7 11.1
2018-Dec-11 15:13 005 4 gusting 10 11.1
2018-Dec-11 15:09 027 3 gusting 10 11.1
2018-Dec-11 15:03 118 1 gusting 9 11.7
2018-Dec-11 14:58 017 2 gusting 7 11.7
2018-Dec-11 14:54 348 2 gusting 8 11.7
2018-Dec-11 14:48 340 2 gusting 8 11.7
2018-Dec-11 14:43 005 1 gusting 8 11.7
2018-Dec-11 14:39 355 2 gusting 9 11.7
2018-Dec-11 14:33 340 3 gusting 9 11.7
2018-Dec-11 14:28 015 1 gusting 8 11.7
2018-Dec-11 14:23 025 3 gusting 10 11.1
2018-Dec-11 14:18 041 2 gusting 10 11.7
2018-Dec-11 14:08 029 1 gusting 7 11.1
2018-Dec-11 14:04 323 3 gusting 8 11.1
2018-Dec-11 13:58 016 3 gusting 8 11.1
2018-Dec-11 13:54 034 2 gusting 8 11.1
2018-Dec-11 13:48 005 3 gusting 7 11.7
2018-Dec-11 13:43 020 2 gusting 7 11.1
2018-Dec-11 13:33 030 2 gusting 5 11.1
2018-Dec-11 13:28 034 1 gusting 5 10.6
2018-Dec-11 13:23 034 10.6
2018-Dec-11 13:18 005 0 gusting 6 10.6
2018-Dec-11 13:08 015 1 gusting 6 10.0
2018-Dec-11 12:58 061 10.0
2018-Dec-11 12:53 074 10.0
2018-Dec-11 12:49 074 10.0
2018-Dec-11 12:43 043 0 gusting 1 10.0
2018-Dec-11 12:38 043 9.4
2018-Dec-11 12:34 043 0 gusting 2 9.4
2018-Dec-11 12:28 043 0 gusting 3 9.4
2018-Dec-11 12:23 040 0 gusting 2 9.4
2018-Dec-11 12:13 360 9.4
2018-Dec-11 12:03 355 9.4
2018-Dec-11 11:53 022 0 gusting 2 9.4
2018-Dec-11 11:48 013 0 gusting 1 10.0
2018-Dec-11 11:43 013 10.0
2018-Dec-11 11:38 013 0 gusting 3 10.0
2018-Dec-11 11:28 041 1 gusting 5 9.4
2018-Dec-11 11:24 043 1 gusting 4 9.4
2018-Dec-11 11:18 355 1 gusting 4 9.4
2018-Dec-11 11:13 021 1 gusting 4 9.4
2018-Dec-11 11:08 355 9.4
2018-Dec-11 11:03 017 1 gusting 2 9.4
2018-Dec-11 10:58 011 0 gusting 4 8.9
2018-Dec-11 10:54 069 0 gusting 4 8.9
2018-Dec-11 10:48 068 8.9
2018-Dec-11 10:43 068 0 gusting 1 8.9
2018-Dec-11 10:39 068 8.3
2018-Dec-11 10:33 068 8.3
2018-Dec-11 10:28 068 8.3
2018-Dec-11 10:23 068 8.3
2018-Dec-11 10:18 068 8.3
2018-Dec-11 10:13 068 8.9
2018-Dec-11 10:09 068 8.9
2018-Dec-11 10:03 068 8.9
2018-Dec-11 09:58 068 8.9
2018-Dec-11 09:54 068 8.9
2018-Dec-11 09:48 068 8.9
2018-Dec-11 09:43 068 8.9
2018-Dec-11 09:38 068 0 gusting 1 8.9
2018-Dec-11 09:33 068 8.9
2018-Dec-11 09:29 068 9.4
2018-Dec-11 09:23 068 9.4
2018-Dec-11 09:18 068 0 gusting 3 9.4
2018-Dec-11 09:14 068 0 gusting 3 9.4
2018-Dec-11 09:08 039 0 gusting 2 9.4
2018-Dec-11 09:03 039 0 gusting 3 9.4
2018-Dec-11 08:53 030 0 gusting 3 10.0
2018-Dec-11 08:43 034 1 gusting 6 10.0
2018-Dec-11 08:39 027 1 gusting 3 10.0
2018-Dec-11 08:33 055 0 gusting 2 10.0
2018-Dec-11 08:28 040 0 gusting 2 10.0
2018-Dec-11 08:18 069 1 gusting 5 10.0
2018-Dec-11 08:13 028 10.6
2018-Dec-11 08:09 032 0 gusting 3 10.6
2018-Dec-11 08:03 018 0 gusting 5 10.6
2018-Dec-11 07:58 005 0 gusting 5 10.6
2018-Dec-11 07:54 076 0 gusting 5 10.6
2018-Dec-11 07:48 042 0 gusting 3 10.6
2018-Dec-11 07:43 061 0 gusting 4 10.6
2018-Dec-11 07:39 053 2 gusting 4 10.6
2018-Dec-11 07:33 010 0 gusting 4 10.6
2018-Dec-11 07:29 355 0 gusting 6 10.6
2018-Dec-11 07:23 064 2 gusting 6 10.6
2018-Dec-11 07:18 069 1 gusting 3 10.6
2018-Dec-11 07:14 055 0 gusting 3 10.6
2018-Dec-11 07:08 051 0 gusting 2 10.6
2018-Dec-11 07:03 355 0 gusting 4 10.6
2018-Dec-11 06:58 049 1 gusting 4 10.6
2018-Dec-11 06:53 055 10.6
2018-Dec-11 06:48 043 1 gusting 4 10.6
2018-Dec-11 06:43 039 10.6
2018-Dec-11 06:38 028 10.6
2018-Dec-11 06:33 028 0 gusting 2 10.6
2018-Dec-11 06:28 024 0 gusting 1 10.6
2018-Dec-11 06:23 024 10.6
2018-Dec-11 06:18 024 10.6
2018-Dec-11 06:13 024 0 gusting 2 10.6
2018-Dec-11 06:08 024 0 gusting 2 10.6
2018-Dec-11 06:03 023 0 gusting 2 10.6
2018-Dec-11 05:58 055 10.6
2018-Dec-11 05:53 054 0 gusting 1 10.6
2018-Dec-11 05:48 066 10.6
2018-Dec-11 05:43 066 0 gusting 2 10.6
2018-Dec-11 05:38 054 0 gusting 2 10.6
2018-Dec-11 05:33 057 0 gusting 2 10.6
2018-Dec-11 05:28 057 10.6
2018-Dec-11 05:23 057 0 gusting 2 10.6
2018-Dec-11 05:18 082 0 gusting 2 10.6
2018-Dec-11 05:13 093 0 gusting 2 10.6
2018-Dec-11 05:08 093 0 gusting 3 10.6
2018-Dec-11 05:03 097 10.6
2018-Dec-11 04:58 105 1 gusting 5 11.1
2018-Dec-11 04:54 075 1 gusting 5 11.1
2018-Dec-11 04:48 080 1 gusting 3 11.1
2018-Dec-11 04:44 111 0 gusting 5 11.1
2018-Dec-11 04:38 101 2 gusting 5 11.1
2018-Dec-11 04:33 059 1 gusting 4 11.1
2018-Dec-11 04:23 092 2 gusting 6 11.1
2018-Dec-11 04:13 043 2 gusting 6 11.1
2018-Dec-11 04:09 048 1 gusting 4 11.1
2018-Dec-11 04:03 067 0 gusting 3 11.1
2018-Dec-11 03:58 063 1 gusting 3 11.1
2018-Dec-11 03:54 049 0 gusting 3 11.1
2018-Dec-11 03:48 051 1 gusting 3 11.1
2018-Dec-11 03:43 060 0 gusting 4 11.1
2018-Dec-11 03:38 070 1 gusting 5 11.1
2018-Dec-11 03:33 096 0 gusting 3 11.7
2018-Dec-11 03:23 047 0 gusting 4 11.1
2018-Dec-11 03:19 047 0 gusting 4 11.7
2018-Dec-11 03:13 040 1 gusting 3 11.7
2018-Dec-11 03:08 062 11.7
2018-Dec-11 03:04 042 1 gusting 3 11.7
2018-Dec-11 02:58 063 0 gusting 4 11.7
2018-Dec-11 02:53 045 0 gusting 4 11.7
2018-Dec-11 02:48 080 0 gusting 5 11.7
2018-Dec-11 02:43 061 1 gusting 5 11.7
2018-Dec-11 02:39 052 2 gusting 4 11.7
2018-Dec-11 02:33 063 1 gusting 5 11.7
2018-Dec-11 02:28 045 2 gusting 5 11.7
2018-Dec-11 02:23 061 0 gusting 5 11.7
2018-Dec-11 02:18 062 2 gusting 5 11.7
2018-Dec-11 02:13 060 1 gusting 4 11.7
2018-Dec-11 02:08 039 2 gusting 4 11.7
2018-Dec-11 01:58 030 0 gusting 5 11.7
2018-Dec-11 01:53 057 2 gusting 5 11.7
2018-Dec-11 01:49 044 1 gusting 5 11.7
2018-Dec-11 01:43 071 1 gusting 5 11.7
2018-Dec-11 01:38 049 0 gusting 5 11.7
2018-Dec-11 01:33 062 2 gusting 6 11.7
2018-Dec-11 01:28 063 2 gusting 6 11.7
2018-Dec-11 01:18 032 0 gusting 6 11.7
2018-Dec-11 01:08 047 1 gusting 5 11.7
2018-Dec-11 01:03 038 1 gusting 4 11.7
2018-Dec-11 00:58 018 11.7
2018-Dec-11 00:53 020 2 gusting 4 11.7
2018-Dec-11 00:49 042 0 gusting 4 11.7
2018-Dec-11 00:43 021 1 gusting 4 11.7
2018-Dec-11 00:38 025 1 gusting 5 11.7
2018-Dec-11 00:33 028 1 gusting 6 11.7
2018-Dec-11 00:28 064 1 gusting 6 11.7
2018-Dec-11 00:24 360 2 gusting 7 11.7
2018-Dec-11 00:18 015 3 gusting 10 11.7
2018-Dec-11 00:13 360 5 gusting 10 12.2
2018-Dec-11 00:08 321 2 gusting 7 12.2
2018-Dec-11 00:03 335 3 gusting 8 12.2
2018-Dec-10 23:53 009 2 gusting 5 12.2
2018-Dec-10 23:48 035 0 gusting 6 12.2
2018-Dec-10 23:43 049 2 gusting 8 12.2
2018-Dec-10 23:38 015 5 gusting 8 12.2
2018-Dec-10 23:34 015 1 gusting 8 12.2
2018-Dec-10 23:28 011 3 gusting 7 12.2
2018-Dec-10 23:23 046 3 gusting 8 12.2
2018-Dec-10 23:13 310 1 gusting 8 12.2
2018-Dec-10 23:08 286 3 gusting 11 12.2
2018-Dec-10 23:03 321 3 gusting 12 12.8
2018-Dec-10 22:58 355 4 gusting 10 12.8
2018-Dec-10 22:48 009 0 gusting 9 12.8
2018-Dec-10 22:44 022 2 gusting 9 12.8
2018-Dec-10 22:38 050 5 gusting 11 12.8
2018-Dec-10 22:33 035 2 gusting 11 12.8
2018-Dec-10 22:23 360 1 gusting 11 13.3
2018-Dec-10 22:18 263 3 gusting 9 13.3
2018-Dec-10 22:13 018 4 gusting 8 13.3
2018-Dec-10 22:08 026 4 gusting 11 13.3
2018-Dec-10 22:04 325 4 gusting 11 13.3
2018-Dec-10 21:58 306 3 gusting 9 13.3
2018-Dec-10 21:53 355 4 gusting 11 13.3
2018-Dec-10 21:43 355 5 gusting 13 13.9
2018-Dec-10 21:38 331 5 gusting 11 13.9
2018-Dec-10 21:33 331 5 gusting 11 13.9
2018-Dec-10 21:28 321 2 gusting 7 13.9
2018-Dec-10 21:24 005 3 gusting 10 13.9
2018-Dec-10 21:18 355 6 gusting 10 13.9
2018-Dec-10 21:13 355 6 gusting 12 13.9
2018-Dec-10 21:08 017 6 gusting 12 13.9
2018-Dec-10 21:04 346 4 gusting 9 13.9
2018-Dec-10 20:58 329 3 gusting 12 13.9
2018-Dec-10 20:54 016 6 gusting 13 13.9
2018-Dec-10 20:48 347 6 gusting 13 13.9
2018-Dec-10 20:43 309 6 gusting 13 14.4
2018-Dec-10 20:38 320 6 gusting 13 14.4
2018-Dec-10 20:28 022 5 gusting 11 14.4
2018-Dec-10 20:18 325 6 gusting 13 14.4
2018-Dec-10 20:13 333 5 gusting 13 14.4
2018-Dec-10 20:08 339 3 gusting 13 14.4
2018-Dec-10 20:03 009 3 gusting 13 14.4
2018-Dec-10 19:58 330 5 gusting 13 15.0
2018-Dec-10 19:48 340 9 gusting 15 15.0
2018-Dec-10 19:44 355 4 gusting 15 15.0
2018-Dec-10 19:38 346 8 gusting 14 15.0
2018-Dec-10 19:33 345 6 gusting 15 15.0
2018-Dec-10 19:29 349 6 gusting 15 15.0
2018-Dec-10 19:23 313 5 gusting 14 15.0
2018-Dec-10 19:19 317 6 gusting 16 15.0
2018-Dec-10 19:13 332 6 gusting 16 15.0
2018-Dec-10 19:08 046 6 gusting 13 15.6
2018-Dec-10 18:58 360 6 gusting 19 15.6
2018-Dec-10 18:53 329 7 gusting 19 15.6
2018-Dec-10 18:48 309 8 gusting 15 15.6
2018-Dec-10 18:43 280 6 gusting 14 15.6
2018-Dec-10 18:39 338 7 gusting 14 15.6
2018-Dec-10 18:28 018 6 gusting 15 15.6
2018-Dec-10 18:24 267 8 gusting 16 15.6
2018-Dec-10 18:18 306 7 gusting 17 15.0
2018-Dec-10 18:14 355 8 gusting 17 15.0
2018-Dec-10 18:08 337 8 gusting 14 15.0
2018-Dec-10 18:03 315 6 gusting 14 15.0
2018-Dec-10 17:59 335 6 gusting 18 15.0
2018-Dec-10 17:53 277 7 gusting 18 15.0
2018-Dec-10 17:48 320 8 gusting 19 15.0
2018-Dec-10 17:38 018 8 gusting 17 15.0
2018-Dec-10 17:34 355 6 gusting 16 15.0
2018-Dec-10 17:28 347 7 gusting 17 14.4
2018-Dec-10 17:23 355 8 gusting 17 15.0
2018-Dec-10 17:13 334 6 gusting 15 15.0
2018-Dec-10 17:09 345 6 gusting 13 15.0
2018-Dec-10 17:03 348 6 gusting 12 15.0
2018-Dec-10 16:58 338 5 gusting 13 15.0
2018-Dec-10 16:48 324 5 gusting 13 15.0
2018-Dec-10 16:44 322 6 gusting 13 15.0
2018-Dec-10 16:38 309 7 gusting 13 15.0
2018-Dec-10 16:33 291 7 gusting 14 15.0
2018-Dec-10 16:23 317 3 gusting 15 15.0
2018-Dec-10 16:13 282 3 gusting 13 15.0
2018-Dec-10 16:03 321 3 gusting 8 15.6
2018-Dec-10 15:59 327 3 gusting 7 15.6
2018-Dec-10 15:53 344 4 gusting 10 16.1
2018-Dec-10 15:48 331 4 gusting 12 16.1
2018-Dec-10 15:38 011 6 gusting 15 16.1
2018-Dec-10 15:33 314 6 gusting 11 16.1
2018-Dec-10 15:29 015 6 gusting 12 15.6
2018-Dec-10 15:24 005 4 gusting 12 15.6
2018-Dec-10 15:19 355 6 gusting 13 15.6
2018-Dec-10 15:13 320 6 gusting 14 15.6
2018-Dec-10 15:08 335 5 gusting 14 15.0
2018-Dec-10 14:58 360 4 gusting 13 15.0
2018-Dec-10 14:54 318 6 gusting 12 15.0
2018-Dec-10 14:48 005 6 gusting 11 15.0
2018-Dec-10 14:43 333 4 gusting 13 15.6
2018-Dec-10 14:39 334 7 gusting 13 15.0
2018-Dec-10 14:34 030 6 gusting 12 15.0
2018-Dec-10 14:28 039 5 gusting 13 15.0
2018-Dec-10 14:23 331 8 gusting 13 15.0
2018-Dec-10 14:18 350 4 gusting 11 15.0
2018-Dec-10 14:13 011 5 gusting 12 15.0
2018-Dec-10 14:03 351 5 gusting 9 15.0
2018-Dec-10 13:53 324 5 gusting 10 15.0
2018-Dec-10 13:49 005 4 gusting 10 15.0
2018-Dec-10 13:43 310 5 gusting 10 15.0
2018-Dec-10 13:38 330 5 gusting 10 15.0
2018-Dec-10 13:33 009 2 gusting 9 14.4
2018-Dec-10 13:28 333 3 gusting 8 14.4
2018-Dec-10 13:23 005 3 gusting 8 14.4
2018-Dec-10 13:13 025 5 gusting 12 14.4
2018-Dec-10 13:09 360 4 gusting 12 14.4
2018-Dec-10 13:03 360 4 gusting 11 14.4
2018-Dec-10 12:58 321 2 gusting 12 14.4
2018-Dec-10 12:54 321 6 gusting 13 14.4
2018-Dec-10 12:48 257 5 gusting 13 14.4
2018-Dec-10 12:43 313 3 gusting 10 14.4
2018-Dec-10 12:39 019 3 gusting 9 14.4
2018-Dec-10 12:33 355 2 gusting 9 14.4
2018-Dec-10 12:28 349 5 gusting 8 14.4
2018-Dec-10 12:23 319 3 gusting 10 14.4
2018-Dec-10 12:18 038 3 gusting 10 14.4
2018-Dec-10 12:03 023 1 gusting 9 14.4
2018-Dec-10 11:58 013 6 gusting 9 14.4
2018-Dec-10 11:53 015 2 gusting 8 14.4
2018-Dec-10 11:49 321 4 gusting 8 14.4
2018-Dec-10 11:43 014 1 gusting 9 15.0
2018-Dec-10 11:39 309 4 gusting 10 15.0
2018-Dec-10 11:33 342 5 gusting 10 15.0
2018-Dec-10 11:28 313 6 gusting 10 15.0
2018-Dec-10 11:18 016 0 gusting 9 15.0
2018-Dec-10 11:13 331 3 gusting 10 15.0
2018-Dec-10 11:08 336 4 gusting 9 15.0
2018-Dec-10 11:03 328 4 gusting 9 15.0
2018-Dec-10 10:58 005 3 gusting 9 15.0
2018-Dec-10 10:54 340 4 gusting 10 15.0
2018-Dec-10 10:48 325 2 gusting 10 15.0
2018-Dec-10 10:43 013 5 gusting 11 15.0
2018-Dec-10 10:38 348 6 gusting 13 15.0
2018-Dec-10 10:33 058 3 gusting 13 15.0
2018-Dec-10 10:28 338 2 gusting 10 15.0
2018-Dec-10 10:24 355 6 gusting 9 15.0
2018-Dec-10 10:18 321 2 gusting 10 15.0
2018-Dec-10 10:13 327 3 gusting 10 15.0
2018-Dec-10 10:08 309 2 gusting 10 15.0
2018-Dec-10 10:03 317 5 gusting 11 15.0
2018-Dec-10 09:59 005 3 gusting 8 15.0
2018-Dec-10 09:53 306 3 gusting 13 15.0
2018-Dec-10 09:48 309 5 gusting 13 15.0
2018-Dec-10 09:43 040 3 gusting 10 15.0
2018-Dec-10 09:38 011 5 gusting 9 15.0
2018-Dec-10 09:33 348 3 gusting 7 15.0
2018-Dec-10 09:29 355 3 gusting 7 15.0
2018-Dec-10 09:23 005 1 gusting 9 15.0
2018-Dec-10 09:18 313 3 gusting 9 14.4
2018-Dec-10 09:08 333 5 gusting 8 15.0
2018-Dec-10 08:58 323 2 gusting 9 15.0
2018-Dec-10 08:53 350 3 gusting 9 15.0
2018-Dec-10 08:48 340 1 gusting 13 15.0
2018-Dec-10 08:43 340 4 gusting 13 15.0
2018-Dec-10 08:33 005 5 gusting 11 15.0
2018-Dec-10 08:29 282 4 gusting 8 15.0
2018-Dec-10 08:23 311 3 gusting 9 15.0
2018-Dec-10 08:18 005 4 gusting 10 15.0
2018-Dec-10 08:08 336 6 gusting 12 15.6
2018-Dec-10 08:03 351 4 gusting 8 15.6
2018-Dec-10 07:53 294 5 gusting 9 15.6
2018-Dec-10 07:48 274 6 gusting 12 16.1
2018-Dec-10 07:44 312 6 gusting 12 16.1
2018-Dec-10 07:38 328 4 gusting 11 16.1
2018-Dec-10 07:33 330 5 gusting 13 16.1
2018-Dec-10 07:29 335 4 gusting 13 16.7
2018-Dec-10 07:23 333 2 gusting 13 16.7
2018-Dec-10 07:18 340 6 gusting 13 16.7
2018-Dec-10 07:14 336 5 gusting 12 16.7
2018-Dec-10 07:08 313 6 gusting 10 16.7
2018-Dec-10 07:03 292 3 gusting 10 17.2
2018-Dec-10 06:58 350 4 gusting 10 17.2
2018-Dec-10 06:53 005 3 gusting 9 17.2
2018-Dec-10 06:48 344 2 gusting 13 17.2
2018-Dec-10 06:43 011 4 gusting 13 17.2
2018-Dec-10 06:38 318 5 gusting 13 17.2
2018-Dec-10 06:33 315 2 gusting 9 17.2
2018-Dec-10 06:28 005 2 gusting 11 17.8
2018-Dec-10 06:23 290 3 gusting 13 17.8
2018-Dec-10 06:18 266 5 gusting 12 17.8
2018-Dec-10 06:13 338 5 gusting 12 17.8
2018-Dec-10 06:08 317 4 gusting 12 17.8
2018-Dec-10 06:03 039 4 gusting 10 17.8
2018-Dec-10 05:58 360 4 gusting 10 17.8
2018-Dec-10 05:53 346 3 gusting 10 17.8
2018-Dec-10 05:48 360 4 gusting 11 17.8
2018-Dec-10 05:43 298 4 gusting 11 17.8
2018-Dec-10 05:38 328 3 gusting 9 18.3
2018-Dec-10 05:33 360 5 gusting 9 18.3
2018-Dec-10 05:28 022 5 gusting 9 18.3
2018-Dec-10 05:23 276 4 gusting 9 18.3
2018-Dec-10 05:18 235 4 gusting 9 18.3
2018-Dec-10 05:13 259 2 gusting 8 18.9
2018-Dec-10 05:08 346 1 gusting 10 18.9
2018-Dec-10 05:03 316 3 gusting 13 18.9
2018-Dec-10 04:58 329 5 gusting 13 18.9
2018-Dec-10 04:53 267 4 gusting 9 18.9
2018-Dec-10 04:49 317 2 gusting 7 18.9
2018-Dec-10 04:43 019 1 gusting 7 18.9
2018-Dec-10 04:38 296 1 gusting 10 18.9
2018-Dec-10 04:33 280 3 gusting 10 18.9
2018-Dec-10 04:28 355 2 gusting 7 18.9
2018-Dec-10 04:23 284 1 gusting 8 18.9
2018-Dec-10 04:19 318 3 gusting 11 18.9
2018-Dec-10 04:13 325 2 gusting 11 18.9
2018-Dec-10 04:08 281 2 gusting 8 18.9
2018-Dec-10 04:04 355 2 gusting 8 18.9
2018-Dec-10 03:58 321 1 gusting 9 18.9
2018-Dec-10 03:53 277 2 gusting 9 18.9
2018-Dec-10 03:49 315 1 gusting 9 18.9
2018-Dec-10 03:43 015 2 gusting 9 18.9
2018-Dec-10 03:38 297 3 gusting 9 18.9
2018-Dec-10 03:28 343 3 gusting 11 18.9
2018-Dec-10 03:24 249 6 gusting 11 18.9
2018-Dec-10 03:18 346 3 gusting 7 18.9
2018-Dec-10 03:13 329 2 gusting 6 18.9
2018-Dec-10 03:03 338 2 gusting 7 18.9